Bennington, VT

12:57 PM EDT on May 26, 2017 (GMT -0400)
Morse State

Weather History for KDDH - July, 2013

Change the Weather History Date:

Monday, July 15, 2013

  Actual Average Record
Temperature  
Mean Temperature 77 °F 68 °F  
Max Temperature 89 °F 80 °F 89 °F (2013)
Min Temperature 64 °F 57 °F 48 °F (2015)
Degree Days  
Heating Degree Days 0 1  
Month to date heating degree days 0 15  
Since 1 June heating degree days 100 112  
Since 1 July heating degree days 0 15  
Cooling Degree Days 12 4  
Month to date cooling degree days 161 59  
Year to date cooling degree days 291 131  
Since 1 June cooling degree days 259 117  
Growing Degree Days 26 (Base 50)    
Moisture  
Dew Point 67 °F    
Average Humidity 75    
Maximum Humidity 100    
Minimum Humidity 50    
Precipitation  
Precipitation 0.00 in 0.14 in 0.94 in (2004)
Month to date precipitation 2.31 2.08  
Year to date precipitation 24.07 21.28  
Sea Level Pressure  
Sea Level Pressure 30.23 in    
Wind  
Wind Speed 2 mph (West)    
Max Wind Speed 9 mph    
Max Gust Speed 23 mph    
Visibility 5 miles    
Events Fog    
T = Trace of Precipitation, MM = Missing Value Source: NWS Daily Summary

Daily Weather History Graph

Daily Weather History Graph

Search for Another Location

Airport or City:

Trip Planner

Search our weather history database for the weather conditions in past years. The results will help you decide how hot, cold, wet, or windy it might be!

Date:

Astronomy

Jul. 15, 2013 Rise Set
Actual Time 5:28 AM EDT 8:29 PM EDT
Civil Twilight 4:54 AM EDT 9:03 PM EDT
Nautical Twilight 4:10 AM EDT 9:46 PM EDT
Astronomical Twilight 3:19 AM EDT 10:37 PM EDT
Moon 12:56 PM EDT (7/15) No Moon Set
Length of Visible Light 16h 09m
Length of Day
15h 01m
Waxing Crescent, 45% of the Moon is Illuminated
Jul 15
Waxing Crescent
Jul 15
First Quarter
Jul 22
Full
Jul 29
Last Quarter
Aug 6
New

Hourly Weather History & Observations

Time (EDT) Temp. Heat Index Dew Point Humidity Pressure Visibility Wind Dir Wind Speed Gust Speed Precip Events Conditions
12:27 AM 71.6 °F - 69.8 °F 94% 30.26 in 1.8 mi Calm Calm - N/A   Clear
12:43 AM 69.8 °F - 68.0 °F 94% 30.25 in 3.0 mi Calm Calm - N/A   Clear
12:54 AM 70.0 °F - 68.0 °F 93% 30.24 in 6.0 mi Calm Calm - N/A   Clear
1:51 AM 68.0 °F - 66.2 °F 94% 30.25 in 2.5 mi Calm Calm - N/A   Scattered Clouds
1:54 AM 69.1 °F - 66.9 °F 93% 30.23 in 1.8 mi Calm Calm - N/A   Scattered Clouds
1:59 AM 69.8 °F - 68.0 °F 94% 30.25 in 0.8 mi Calm Calm - N/A   Mist
2:27 AM 68.0 °F - 66.2 °F 94% 30.24 in 0.2 mi Calm Calm - N/A Fog Fog
2:34 AM 68.0 °F - 66.2 °F 94% 30.24 in 1.0 mi Calm Calm - N/A   Mist
2:49 AM 66.2 °F - 66.2 °F 100% 30.24 in 0.5 mi Calm Calm - N/A Fog Fog
2:54 AM 66.9 °F - 66.0 °F 97% 30.22 in 0.5 mi Calm Calm - N/A Fog Fog
3:35 AM 66.2 °F - 66.2 °F 100% 30.24 in 0.2 mi Calm Calm - N/A Fog Fog
3:54 AM 66.0 °F - 64.9 °F 96% 30.23 in 0.5 mi Calm Calm - N/A Fog Fog
4:36 AM 64.4 °F - 64.4 °F 100% 30.25 in 2.0 mi Calm Calm - N/A   Mostly Cloudy
4:44 AM 66.2 °F - 64.4 °F 94% 30.25 in 0.8 mi Calm Calm - N/A   Mist
4:54 AM 64.9 °F - 64.0 °F 97% 30.24 in 0.8 mi Calm Calm - N/A   Mist
5:03 AM 64.4 °F - 62.6 °F 94% 30.25 in 1.2 mi Calm Calm - N/A   Scattered Clouds
5:12 AM 64.4 °F - 64.4 °F 100% 30.25 in 3.0 mi Calm Calm - N/A   Partly Cloudy
5:31 AM 64.4 °F - 62.6 °F 94% 30.25 in 1.8 mi Calm Calm - N/A   Clear
5:38 AM 64.4 °F - 62.6 °F 94% 30.26 in 0.2 mi Calm Calm - N/A Fog Fog
5:54 AM 64.9 °F - 63.0 °F 93% 30.24 in 0.5 mi Calm Calm - N/A Fog Fog
5:58 AM 64.4 °F - 62.6 °F 94% 30.26 in 2.5 mi Calm Calm - N/A   Clear
6:02 AM 64.4 °F - 62.6 °F 94% 30.26 in 4.0 mi Calm Calm - N/A   Partly Cloudy
6:11 AM 64.4 °F - 64.4 °F 100% 30.26 in 2.5 mi Calm Calm - N/A   Scattered Clouds
6:20 AM 64.4 °F - 64.4 °F 100% 30.26 in 3.0 mi Calm Calm - N/A   Partly Cloudy
6:28 AM 66.2 °F - 64.4 °F 94% 30.26 in 2.5 mi Calm Calm - N/A   Partly Cloudy
6:41 AM 66.2 °F - 66.2 °F 100% 30.26 in 3.0 mi Calm Calm - N/A   Clear
6:54 AM 68.0 °F - 66.9 °F 96% 30.25 in 6.0 mi Calm Calm - N/A   Clear
7:54 AM 75.0 °F - 69.1 °F 82% 30.25 in 10.0 mi Calm Calm - N/A   Clear
8:54 AM 77.0 °F - 70.0 °F 79% 30.25 in 10.0 mi Calm Calm - N/A   Clear
9:44 AM 78.8 °F - 69.8 °F 74% 30.26 in 10.0 mi WNW 3.5 mph - N/A   Mostly Cloudy
9:54 AM 80.1 °F 82.7 °F 68.0 °F 67% 30.25 in 10.0 mi Variable 4.6 mph - N/A   Scattered Clouds
10:54 AM 82.0 °F 85.9 °F 70.0 °F 67% 30.24 in 10.0 mi Variable 3.5 mph - N/A   Partly Cloudy
11:54 AM 84.0 °F 87.0 °F 68.0 °F 58% 30.23 in 10.0 mi WNW 5.8 mph - N/A   Clear
12:54 PM 86.0 °F 89.4 °F 68.0 °F 55% 30.22 in 10.0 mi NW 6.9 mph - N/A   Scattered Clouds
1:54 PM 87.1 °F 89.2 °F 66.0 °F 49% 30.21 in 10.0 mi Calm Calm - N/A   Partly Cloudy
2:54 PM 87.1 °F 91.3 °F 69.1 °F 55% 30.19 in 10.0 mi Variable 5.8 mph - N/A   Clear
3:54 PM 88.0 °F 92.1 °F 69.1 °F 53% 30.18 in 10.0 mi Variable 4.6 mph - N/A   Partly Cloudy
4:54 PM 88.0 °F 92.9 °F 70.0 °F 55% 30.17 in 10.0 mi West 3.5 mph - N/A   Clear
5:54 PM 87.1 °F 91.3 °F 69.1 °F 55% 30.16 in 10.0 mi West 4.6 mph - N/A   Clear
6:54 PM 84.9 °F 89.4 °F 70.0 °F 61% 30.15 in 10.0 mi West 5.8 mph - N/A   Mostly Cloudy
7:54 PM 82.9 °F 87.0 °F 70.0 °F 65% 30.15 in 10.0 mi SW 3.5 mph - N/A   Mostly Cloudy
8:54 PM 80.1 °F 82.9 °F 69.1 °F 69% 30.16 in 10.0 mi Calm Calm - N/A   Mostly Cloudy
9:54 PM 78.1 °F - 68.0 °F 71% 30.17 in 10.0 mi Calm Calm - N/A   Clear
10:54 PM 73.0 °F - 68.0 °F 84% 30.19 in 10.0 mi ESE 3.5 mph - N/A   Mostly Cloudy
11:54 PM 70.0 °F - 66.9 °F 90% 30.19 in 10.0 mi Calm Calm - N/A   Mostly Cloudy